Ardmore, OK

3:27 PM CDT on April 19, 2018 (GMT -0500)
Ardmore Municipal

Weather History for KADM - June, 2014

Change the Weather History Date:

Wednesday, June 18, 2014

  Actual Average Record
Temperature  
Mean Temperature 84 °F -  
Max Temperature 92 °F 86 °F 100 °F (2011)
Min Temperature 76 °F 68 °F 62 °F (2006)
Cooling Degree Days 20    
Growing Degree Days 34 (Base 50)    
Moisture  
Dew Point 71 °F    
Average Humidity 73    
Maximum Humidity 86    
Minimum Humidity 49    
Precipitation  
Precipitation 0.00 in - - ()
Sea Level Pressure  
Sea Level Pressure 29.92 in    
Wind  
Wind Speed 9 mph (SSE)    
Max Wind Speed 20 mph    
Max Gust Speed 25 mph    
Visibility 10 miles    
Events Thunderstorm    
Averages and records for this station are not official NWS values.
T = Trace of Precipitation, MM = Missing Value Source: NWS Daily Summary

Daily Weather History Graph

Daily Weather History Graph

Search for Another Location

Airport or City:

Astronomy

Jun. 18, 2014 Rise Set
Actual Time 6:15 AM CDT 8:42 PM CDT
Civil Twilight 5:46 AM CDT 9:12 PM CDT
Nautical Twilight 5:10 AM CDT 9:48 PM CDT
Astronomical Twilight 4:30 AM CDT 10:28 PM CDT
Moon 12:25 AM CDT (6/18) 12:25 PM CDT (6/18)
Length of Visible Light 15h 25m
Length of Day
14h 26m
Waning Gibbous, 62% of the Moon is Illuminated
Jun 18
Waning Gibbous
Jun 19
Last Quarter
Jun 27
New
Jul 5
First Quarter
Jul 12
Full

Hourly Weather History & Observations

Time (CDT) Temp. Heat Index Dew Point Humidity Pressure Visibility Wind Dir Wind Speed Gust Speed Precip Events Conditions
12:15 AM 79.2 °F - 73.4 °F 82% 29.94 in 10.0 mi SSE 4.6 mph - N/A   Clear
12:35 AM 78.1 °F - 73.4 °F 85% 29.93 in 10.0 mi SSE 5.8 mph - N/A   Clear
1:15 AM 77.9 °F - 73.4 °F 86% 29.92 in 10.0 mi SSE 6.9 mph - N/A   Clear
1:35 AM 78.3 °F - 73.2 °F 84% 29.92 in 10.0 mi SSE 8.1 mph - N/A   Clear
1:55 AM 78.3 °F - 72.9 °F 83% 29.92 in 10.0 mi SSE 4.6 mph - N/A   Clear
2:15 AM 78.8 °F - 72.5 °F 81% 29.92 in 10.0 mi South 10.4 mph - N/A   Clear
2:35 AM 79.2 °F - 71.8 °F 78% 29.91 in 10.0 mi South 9.2 mph - N/A   Clear
2:55 AM 79.0 °F - 71.6 °F 78% 29.91 in 10.0 mi SSE 8.1 mph - N/A   Clear
3:15 AM 79.0 °F - 71.1 °F 77% 29.91 in 10.0 mi South 9.2 mph - N/A   Clear
3:35 AM 78.6 °F - 70.9 °F 77% 29.92 in 10.0 mi South 9.2 mph - N/A   Clear
3:55 AM 78.3 °F - 70.3 °F 77% 29.91 in 10.0 mi South 8.1 mph - N/A   Clear
4:15 AM 78.1 °F - 70.0 °F 76% 29.91 in 10.0 mi South 8.1 mph - N/A   Clear
4:35 AM 77.9 °F - 69.8 °F 76% 29.91 in 10.0 mi South 9.2 mph - N/A   Clear
4:55 AM 77.9 °F - 69.3 °F 75% 29.91 in 10.0 mi South 13.8 mph 18.4 mph N/A   Clear
5:15 AM 77.9 °F - 69.1 °F 74% 29.92 in 10.0 mi South 11.5 mph 18.4 mph N/A   Clear
5:35 AM 77.5 °F - 68.9 °F 75% 29.92 in 10.0 mi South 9.2 mph 20.7 mph N/A   Clear
5:55 AM 77.2 °F - 69.1 °F 76% 29.92 in 10.0 mi South 10.4 mph 19.6 mph N/A   Clear
6:15 AM 77.0 °F - 69.8 °F 78% 29.92 in 10.0 mi South 10.4 mph 19.6 mph N/A   Clear
6:35 AM 77.0 °F - 70.0 °F 79% 29.93 in 10.0 mi South 11.5 mph 25.3 mph N/A   Clear
6:55 AM 77.0 °F - 69.8 °F 78% 29.94 in 10.0 mi South 15.0 mph 19.6 mph N/A   Scattered Clouds
7:55 AM 77.0 °F - 71.6 °F 83% 29.96 in 10.0 mi South 11.5 mph 18.4 mph N/A   Mostly Cloudy
9:55 AM 82.4 °F 87.2 °F 71.6 °F 70% 29.96 in 10.0 mi South 17.3 mph 25.3 mph N/A   Mostly Cloudy
10:55 AM 86.0 °F 93.4 °F 73.4 °F 66% 29.95 in 10.0 mi SSW 15.0 mph 21.9 mph N/A   Scattered Clouds
11:55 AM 87.8 °F 95.6 °F 73.4 °F 62% 29.95 in 10.0 mi South 17.3 mph 21.9 mph N/A   Scattered Clouds
12:55 PM 89.6 °F 96.2 °F 71.6 °F 55% 29.94 in 10.0 mi SSW 19.6 mph 24.2 mph N/A   Clear
1:55 PM 91.4 °F 100.1 °F 73.4 °F 55% 29.93 in 10.0 mi South 13.8 mph 21.9 mph N/A   Scattered Clouds
2:55 PM 91.4 °F 98.4 °F 71.6 °F 52% 29.92 in 10.0 mi South 13.8 mph 25.3 mph N/A   Scattered Clouds
3:55 PM 93.2 °F 100.5 °F 71.6 °F 49% 29.90 in 10.0 mi South 17.3 mph 20.7 mph N/A   Clear
4:55 PM 91.4 °F 98.4 °F 71.6 °F 52% 29.89 in 10.0 mi South 9.2 mph - N/A   Clear
5:55 PM - - - N/A% 29.89 in 7.0 mi SSE 6.9 mph - N/A   Clear
6:55 PM 89.6 °F 98.2 °F 73.4 °F 59% 29.89 in 10.0 mi SSE 6.9 mph - N/A   Clear
7:55 PM 86.0 °F 93.4 °F 73.4 °F 66% 29.88 in 10.0 mi ESE 9.2 mph 20.7 mph N/A   Scattered Clouds
8:55 PM 86.0 °F 93.4 °F 73.4 °F 66% 29.88 in 10.0 mi ESE 9.2 mph 20.7 mph N/A Thunderstorm Unknown
9:55 PM 84.2 °F 88.4 °F 69.8 °F 62% 29.93 in 10.0 mi ESE 6.9 mph - N/A   Clear
10:15 PM 77.0 °F - 69.8 °F 78% 29.94 in 10.0 mi SE 9.2 mph - N/A   Clear
10:35 PM 77.0 °F - 69.8 °F 78% 29.94 in 10.0 mi SSE 8.1 mph - N/A   Clear
10:55 PM 84.2 °F 88.4 °F 69.8 °F 62% 29.93 in 10.0 mi ESE 6.9 mph - N/A   Clear
11:15 PM 76.1 °F - 70.2 °F 82% 29.96 in 10.0 mi SSE 5.8 mph - N/A   Clear
11:35 PM 76.1 °F - 70.3 °F 82% 29.96 in 10.0 mi SE 5.8 mph - N/A   Clear
11:55 PM 76.1 °F - 70.0 °F 81% 29.96 in 10.0 mi SE 8.1 mph - N/A   Clear